This demonstration page uses our WeatherBlox Daily Observations layout. Learn more.

Left ArrowRight Arrow

Hourly Observations for October 8, 2015

Temp ( °F °C ) Dew Point ( °F °C ) Humidity (%) Winds ( mph kmh ) Pressure ( in mb ) Visibility ( mi km ) Precip ( " mm )
12:15 am 00:15 Clear 60 15.5 57 13.8 90 90 S 5 7 30.00 1016 10 16 N/A
12:35 am 00:35 Clear 60 15.7 57 14 90 90 SSW 6 9 30.00 1016 10 16 N/A
12:55 am 00:55 Clear 62 16.5 58 14.4 87 87 SSW 7 11 29.97 1015 10 16 N/A
1:15 am 01:15 Clear 61 16.2 58 14.2 88 88 SSW 7 11 30.00 1016 10 16 N/A
1:35 am 01:35 Clear 61 16 57 14.1 89 89 SW 7 11 30.00 1016 10 16 N/A
1:55 am 01:55 Clear 60 15.8 57 14 89 89 Calm 30.00 1016 10 16 N/A
2:15 am 02:15 Clear 60 15.5 57 13.7 89 89 SW 3 6 30.00 1016 10 16 N/A
2:35 am 02:35 Clear 60 15.3 57 13.8 91 91 WSW 5 7 30.00 1016 10 16 N/A
2:55 am 02:55 Clear 59 15.1 56 13.5 90 90 Calm 30.00 1016 10 16 N/A
3:15 am 03:15 Clear 59 15 56 13.5 91 91 Calm 30.00 1016 10 16 N/A
3:35 am 03:35 Clear 58 14.4 55 12.9 91 91 SW 3 6 30.00 1016 10 16 N/A
3:55 am 03:55 Clear 58 14.2 55 13 93 93 Calm 30.00 1016 10 16 N/A
4:15 am 04:15 Clear 56 13.5 55 12.5 94 94 Calm 30.00 1016 7 11 N/A
4:35 am 04:35 Clear 55 12.8 54 12 95 95 W 3 6 30.03 1017 10 16 N/A
4:55 am 04:55 Clear 55 12.5 53 11.5 94 94 W 6 9 30.03 1017 7 11 N/A
5:15 am 05:15 Clear 55 12.5 53 11.6 94 94 W 3 6 30.03 1017 7 11 N/A
5:35 am 05:35 Clear 53 11.9 52 11 94 94 NNW 8 13 30.03 1017 7 11 N/A
5:55 am 05:55 Clear 54 12.1 52 11.3 95 95 NW 5 7 30.03 1017 7 11 N/A
6:15 am 06:15 Clear with Mist and Fog 53 11.5 51 10.6 94 94 NW 3 6 30.03 1017 5 8 N/A
6:35 am 06:35 Clear with Mist and Fog 53 11.6 52 11 96 96 NW 3 6 30.03 1017 4 6 N/A
6:55 am 06:55 Clear with Mist and Fog 52 11.1 51 10.4 96 96 NW 3 6 30.03 1017 3 5 N/A
7:15 am 07:15 Clear with Mist and Fog 51 10.8 50 10.1 95 95 NW 5 7 30.03 1017 4 6 N/A
7:35 am 07:35 Clear with Mist and Fog 51 10.5 50 9.8 95 95 WNW 3 6 30.03 1017 5 8 N/A
7:55 am 07:55 Sunny with Mist and Fog 51 10.3 49 9.7 96 96 WNW 3 6 30.06 1018 4 6 N/A
8:15 am 08:15 Sunny with Mist and Fog 50 10.2 49 9.6 96 96 NW 6 9 30.09 1019 3 4 N/A
8:35 am 08:35 Sunny with Mist and Fog 53 11.5 52 11 97 97 WNW 3 6 30.06 1018 3 4 N/A
8:55 am 08:55 Sunny with Mist and Fog 55 12.6 54 12.1 97 97 NW 3 6 30.06 1018 4 6 N/A
9:15 am 09:15 Sunny 57 13.7 56 13.1 96 96 NW 5 7 30.03 1017 7 11 N/A
9:35 am 09:35 Sunny 59 15.1 58 14.3 95 95 NNW 5 7 30.06 1018 10 16 N/A
9:55 am 09:55 Sunny 61 16.2 58 14.4 89 89 NNW 3 6 30.06 1018 10 16 N/A
10:15 am 10:15 Sunny 64 17.9 58 14.6 81 81 N 6 9 30.03 1017 10 16 N/A
10:35 am 10:35 Sunny 68 19.8 56 13.1 65 65 NNE 7 11 30.03 1017 10 16 N/A
10:55 am 10:55 Sunny 69 20.6 53 11.8 57 57 NNE 9 15 30.00 1016 10 16 N/A
11:15 am 11:15 Sunny 68 20.2 51 10.5 54 54 NNE 9 15 30.06 1018 10 16 N/A
11:35 am 11:35 Sunny 72 22.1 50 10 46 46 NE 13 20 30.00 1016 10 16 N/A
11:55 am 11:55 Sunny 70 21.2 47 8.5 44 44 NNE 9 15 30.00 1016 10 16 N/A
12:15 pm 12:15 Sunny 71 21.4 48 9.1 46 46 NNE 9 15 30.00 1016 7 11 N/A
12:35 pm 12:35 Sunny 72 22.3 49 9.5 44 44 NNE 10 17 30.00 1016 10 16 N/A
12:55 pm 12:55 Hazy 72 22.1 50 9.9 46 46 NE 9 15 30.00 1016 5 8 N/A
1:15 pm 13:15 Hazy 73 22.9 50 9.9 44 44 NE 12 19 30.00 1016 5 8 N/A
1:55 pm 13:55 Hazy 72 22 48 8.7 43 43 NNE 10 17 30.00 1016 4 6 N/A
2:15 pm 14:15 Hazy 72 22.1 49 9.2 44 44 NNE 10 17 30.00 1016 4 6 N/A
2:35 pm 14:35 Hazy 72 22.3 49 9.5 44 44 ENE 9 15 30.00 1016 3 5 N/A
2:55 pm 14:55 Sunny 73 22.6 46 8 39 39 NNE 12 19 30.00 1016 7 11 N/A
3:15 pm 15:15 Sunny 73 22.5 47 8.5 41 41 NNE 14 22 30.00 1016 7 11 N/A
3:35 pm 15:35 Mostly Cloudy with Haze 72 22 47 8.4 42 42 N 20 31 30.00 1016 2 3 N/A
3:55 pm 15:55 Partly Cloudy 70 21.2 47 8.2 43 43 N 17 28 30.06 1018 10 16 N/A
4:15 pm 16:15 Partly Cloudy 69 20.3 46 8 45 45 NNE 16 26 30.06 1018 10 16 N/A
4:35 pm 16:35 Sunny 67 19.7 44 6.7 43 43 NNE 16 26 30.06 1018 10 16 N/A
4:55 pm 16:55 Partly Cloudy 67 19.2 46 7.8 48 48 N 14 22 30.09 1019 10 16 N/A
5:15 pm 17:15 Sunny 65 18.5 45 7.1 48 48 NNE 14 22 30.09 1019 10 16 N/A
5:35 pm 17:35 Sunny 65 18.1 46 7.5 50 50 NNE 10 17 30.09 1019 10 16 N/A
5:55 pm 17:55 Sunny 64 18 46 7.9 52 52 NNE 8 13 30.15 1021 10 16 N/A
6:15 pm 18:15 Partly Cloudy 64 17.8 47 8.2 54 54 NNE 14 22 30.15 1021 10 16 N/A
6:35 pm 18:35 Partly Cloudy 63 17.2 44 6.9 51 51 NNE 10 17 30.15 1021 10 16 N/A
6:55 pm 18:55 Partly Cloudy 62 16.5 46 7.6 56 56 N 13 20 30.18 1022 10 16 N/A
7:15 pm 19:15 Mostly Cloudy with Rain 61 15.9 47 8.4 61 61 N 10 17 30.18 1022 10 16 N/A
7:35 pm 19:35 Cloudy 60 15.7 48 9.1 65 65 N 14 22 30.18 1022 10 16 N/A
7:55 pm 19:55 Mostly Cloudy with Light Rain 58 14.5 50 10 75 75 N 12 19 30.21 1023 10 16 N/A
8:15 pm 20:15 Cloudy with Light Rain 56 13.5 51 10.5 82 82 N 9 15 30.24 1024 10 16 N/A
8:35 pm 20:35 Cloudy with Rain 55 12.8 51 10.5 86 86 N 7 11 30.24 1024 10 16 N/A
8:55 pm 20:55 Cloudy with Rain 55 12.6 52 11 90 90 N 6 9 30.24 1024 10 16 N/A
9:15 pm 21:15 Mostly Cloudy with Light Rain 55 12.5 52 11.1 91 91 N 6 9 30.24 1024 10 16 N/A
9:35 pm 21:35 Cloudy with Light Rain 55 12.5 52 11.2 92 92 N 6 9 30.24 1024 10 16 N/A
9:55 pm 21:55 Mostly Cloudy with Light Rain 54 12.3 52 11.1 92 92 N 7 11 30.27 1025 10 16 N/A
10:15 pm 22:15 Mostly Cloudy 54 12.1 52 11 93 93 N 7 11 30.27 1025 10 16 N/A
10:35 pm 22:35 Cloudy 53 11.9 51 10.7 92 92 NNW 6 9 30.27 1025 10 16 N/A
10:55 pm 22:55 Mostly Cloudy 52 11.2 50 10.1 93 93 NW 7 11 30.27 1025 10 16 N/A
11:15 pm 23:15 Partly Cloudy 51 10.7 50 9.9 95 95 NW 7 11 30.27 1025 10 16 N/A
11:35 pm 23:35 Clear 51 10.6 49 9.7 94 94 NNW 7 11 30.27 1025 10 16 N/A
11:55 pm 23:55 Clear 51 10.6 49 9.7 94 94 NNW 8 13 30.27 1025 10 16 N/A

Powered by AerisWeather